Location: Newark
(43.0000°N, 1.6781°W)
Time: 15:47:16
(UTC+00:00)

Vanguard 2 Rocket - Visible Passes

Search period start: 07 October 2022 00:00
Search period end: 17 October 2022 00:00
Orbit: 553 x 3323 km, 32.9° (Epoch: 06 October)

Date Brightness Start Highest point End Pass type
(mag) Time Alt. Az. Time Alt. Az. Time Alt. Az.
07 Oct 10.0 18:37:55 10° S 18:51:39 24° SE 18:59:34 17° ESE visible
07 Oct 9.5 20:50:23 10° SW 21:05:21 42° S 21:05:21 42° S visible
07 Oct 10.4 23:07:26 10° WSW 23:11:07 18° WSW 23:11:07 18° WSW visible
08 Oct 10.3 17:39:11 10° S 17:50:08 18° SE 18:00:04 10° ESE visible
08 Oct 9.5 19:48:42 10° SW 20:05:46 38° SSE 20:08:52 36° SE visible
08 Oct 9.8 22:04:38 10° WSW 22:14:38 35° SW 22:14:38 35° SW visible
09 Oct 9.8 18:47:45 10° SSW 19:04:01 32° SSE 19:12:20 22° ESE visible
09 Oct 9.3 21:02:04 10° SW 21:18:05 49° S 21:18:05 49° S visible
09 Oct 10.4 23:19:56 10° WSW 23:23:51 19° WSW 23:23:51 19° WSW visible
10 Oct 10.2 17:47:47 10° S 18:02:19 26° SE 18:15:18 10° E visible
10 Oct 9.3 19:59:59 10° SW 20:18:18 46° SSE 20:21:29 43° SE visible
10 Oct 9.8 22:16:56 10° WSW 22:27:14 36° SW 22:27:14 36° SW visible
11 Oct 9.7 18:58:33 10° SW 19:16:23 41° SSE 19:24:48 27° ESE visible
11 Oct 9.3 21:14:09 10° WSW 21:30:34 53° SSW 21:30:34 53° SSW visible
11 Oct 10.5 23:32:33 10° W 23:36:19 18° W 23:36:19 18° W visible
12 Oct 10.1 17:57:54 10° SSW 18:14:29 34° SSE 18:28:05 13° E visible
12 Oct 9.2 20:11:47 10° SW 20:30:52 53° SSE 20:33:50 49° SE visible
12 Oct 9.9 22:29:26 10° WSW 22:39:35 36° WSW 22:39:35 36° WSW visible
13 Oct 9.6 19:09:59 10° SW 19:28:47 48° SSE 19:37:02 32° ESE visible
13 Oct 9.4 21:26:29 10° WSW 21:42:47 55° SSW 21:42:47 55° SSW visible
13 Oct 10.5 23:45:16 10° W 23:48:32 17° W 23:48:32 17° W visible
14 Oct 10.0 18:08:54 10° SW 18:26:40 42° SSE 18:40:12 17° E visible
14 Oct 9.2 20:23:55 10° WSW 20:43:28 58° S 20:45:56 55° SSE visible
14 Oct 10.0 22:42:02 10° W 22:51:41 34° WSW 22:51:41 34° WSW visible
15 Oct 9.5 19:21:53 10° SW 19:41:14 55° SSE 19:49:04 37° ESE visible
15 Oct 9.5 21:39:00 10° W 21:54:48 53° SW 21:54:48 53° SW visible
15 Oct 10.7 23:58:08 10° W 00:00:32 15° W 00:00:32 15° W visible
16 Oct 9.9 18:20:29 10° SW 18:38:56 50° SSE 18:52:09 20° E visible
16 Oct 9.2 20:36:19 10° WSW 20:56:03 60° S 20:57:53 58° SSE visible
16 Oct 10.1 22:54:45 10° W 23:03:37 30° WSW 23:03:37 30° WSW visible
